Regional Weather Roundup
Issued by NWS

Home | Current Version | Previous Version | Graphics & Text | Print | Product List | Glossary On
Versions: 1 2 3 4 5 6 7 8 9 10 11 12 13 14 15 16 17 18 19 20 21 22 23 24 25 26 27 28 29 30 31 32 33 34 35 36 37 38 39 40 41 42 43 44 45 46 47 48 49 50
000
ASUS44 KMEG 221600
RWRTN
TENNESSEE HOURLY STATE WEATHER ROUNDUP
NATIONAL WEATHER SERVICE MEMPHIS TN
1100 AM CDT SUN OCT 22 2017

TNZ002-004-019-021-049-052-054-088>092-221700-
WEST TENNESSEE

CITY           SKY/WX    TMP DP  RH WIND       PRES   REMARKS
MEMPHIS INTL   CLOUDY    69  67  93 S6        30.01S
NWS MEMPHIS      N/A     69 N/A N/A MISG        N/A
JACKSON        CLOUDY    73  63  70 S12G22    30.05S
DYERSBURG        N/A     72  63  73 S8        30.02S
$$

TNZ008-025-027-028-033-062-065-066-221700-
NORTH MIDDLE TENNESSEE

CITY           SKY/WX    TMP DP  RH WIND       PRES   REMARKS
NASHVILLE      PTSUNNY   76  59  55 S21G28    30.13F
CLARKSVILLE    CLOUDY    75  59  57 SE14G22   30.08F
SMYRNA         PTSUNNY   76  60  57 S15G26    30.14F
CROSSVILLE     SUNNY     69  54  58 S12G23    30.24F
$$

TNZ061-075-076-078-094-096-097-221700-
SOUTH MIDDLE TENNESSEE

CITY           SKY/WX    TMP DP  RH WIND       PRES   REMARKS
$$

TNZ017-018-042-046-047-221700-
NORTHEAST TENNESSEE

CITY           SKY/WX    TMP DP  RH WIND       PRES   REMARKS
TRI CITIES     MOSUNNY   70  54  56 SE3       30.29F
$$

TNZ012-013-036-069-073-074-221700-
CENTRAL EAST TENNESSEE

CITY           SKY/WX    TMP DP  RH WIND       PRES   REMARKS
KNOXVILLE      CLOUDY    68  57  68 NE6       30.25F
$$

TNZ083-085-099-221700-
SOUTHEAST TENNESSEE

CITY           SKY/WX    TMP DP  RH WIND       PRES   REMARKS
CHATTANOOGA    PTSUNNY   73  59  61 SE12G22   30.22F
$$

SKY/WX REPORTED AS FAIR MEANS FEW OR NO CLOUDS BELOW
12 THOUSAND FEET.





USA.gov is the U.S. government's official web portal to all federal, state and local government web resources and services.